Content
SEND FEEDBACK

Daily
Averages
Monthly
Summary
United States of America

AGANA, GUAM


Home > North America > United States > Guam
Elevation: 74 meters     Latitude: 13 29N     Longitude: 144 48E

WEATHER
 
SELECT A DAY
Number of Records: 215,513;   Date Range: 1/1/95 - 12/17/14
 
SHARE

PRINT THIS DATA

[ ← Previous Day ]
WEATHER ALMANAC - 25 APRIL, 2014
[ Next Day → ]
[ °F ]   °C
Weather ElementAverageHighLow
Temperature28.2 °C30.6 °C (12:54 pm)24.4 °C (5:54 am)
Dewpoint22.7 °C23.9 °C (1:54 am)21.7 °C (5:54 am)
Humidity72.5 %88 % (1:54 am)59 % (12:54 pm)
Barometer1009.5 hPa1010.8 hPa (9:54 pm)1008.5 hPa (3:54 am)
Wind Speed17.9 km/h31.5 km/h (12:54 pm)
Wind Gust51.8 km/h (11:54 am)
Weather ElementAverage
Visibility16.1 km
Wind DirectionENE (73 °)

Weather ElementTotal
Precipitation---
Cooling Degree Days9.2 (Base 18.3)
Growing Degree Days17.5 (Base 10)
Averaged from 23 records on 25 April, 2014
WEATHER CONDITIONS BREAKOUT
WIND DIRECTION BREAKOUT
WEATHER BY HOUR - 25 APRIL, 2014
[ °F ]   °C
Local TimeTemperatureDewpointHumidityBarometerVisibilityWind DirectionWind SpeedGust SpeedPrecipitationEventsConditions
1:54 AM26.1 °C23.9 °C88 %1009.5 hPa16.1 kmENE (60°)14.8 km/hOvercast
2:54 AM26.1 °C22.8 °C82 %1008.8 hPa16.1 kmENE (60°)16.7 km/hClear
3:54 AM26.1 °C22.8 °C82 %1008.5 hPa16.1 kmENE (70°)16.7 km/hClear
4:54 AM25.6 °C22.2 °C81 %1008.5 hPa16.1 kmENE (60°)14.8 km/hClear
5:54 AM24.4 °C21.7 °C85 %1009.1 hPa16.1 kmCalmClear
6:54 AM26.7 °C22.8 °C79 %1009.5 hPa16.1 kmENE (60°)14.8 km/hClear
7:54 AM28.3 °C22.2 °C69 %1010.2 hPa16.1 kmENE (70°)25.9 km/h35.2 km/hClear
8:54 AM28.9 °C22.8 °C69 %1010.5 hPa16.1 kmEast (80°)25.9 km/h38.9 km/hPartly Cloudy
9:54 AM29.4 °C22.8 °C67 %1010.5 hPa16.1 kmEast (90°)20.4 km/hScattered Clouds
10:54 AM30 °C22.2 °C63 %1010.5 hPa16.1 kmEast (90°)25.9 km/h40.7 km/hScattered Clouds
11:54 AM30 °C21.7 °C61 %1009.8 hPa16.1 kmEast (90°)29.6 km/h51.8 km/hPartly Cloudy
12:54 PM30.6 °C21.7 °C59 %1009.1 hPa16.1 kmEast (80°)31.5 km/h40.7 km/hPartly Cloudy
1:54 PM30.6 °C22.8 °C63 %1008.8 hPa16.1 kmEast (80°)27.8 km/h37 km/hPartly Cloudy
2:54 PM30.6 °C22.2 °C61 %1008.5 hPa16.1 kmEast (90°)27.8 km/h37 km/hPartly Cloudy
3:54 PM30 °C22.2 °C63 %1008.5 hPa16.1 kmEast (80°)18.5 km/h33.3 km/hPartly Cloudy
4:54 PM29.4 °C22.2 °C65 %1008.5 hPa16.1 kmENE (70°)14.8 km/hClear
5:54 PM28.9 °C22.8 °C69 %1009.1 hPa16.1 kmEast (80°)14.8 km/hPartly Cloudy
6:54 PM27.8 °C23.3 °C76 %1009.8 hPa16.1 kmEast (80°)11.1 km/hClear
7:54 PM27.8 °C23.3 °C76 %1010.2 hPa16.1 kmENE (70°)11.1 km/hScattered Clouds
8:54 PM27.8 °C23.3 °C76 %1010.5 hPa16.1 kmEast (90°)11.1 km/hPartly Cloudy
9:54 PM27.8 °C23.3 °C76 %1010.8 hPa16.1 kmENE (70°)13 km/hPartly Cloudy
10:54 PM27.2 °C23.3 °C79 %1010.8 hPa16.1 kmEast (90°)11.1 km/hClear
11:54 PM27.2 °C23.3 °C79 %1010.2 hPa16.1 kmENE (70°)13 km/hClear
Hourly data recorded from PGUM, located 0 kilometers away from Agana, Guam







STORIES FROM OUR PARTNERS